Regional Weather Roundup
Issued by NWS

Home | Current Version | Previous Version | Graphics & Text | Print | Product List | Glossary On
Versions: 1 2 3 4 5 6 7 8 9 10 11 12 13 14 15 16 17 18 19 20 21 22 23 24 25 26 27 28 29 30 31 32 33 34 35 36 37 38 39 40 41 42 43 44 45 46 47 48 49 50
000
ASUS43 KDMX 231408
RWRIA

WEATHER ROUNDUP FOR IOWA
NATIONAL WEATHER SERVICE DES MOINES IA
900 AM CDT TUE AUG 23 2016

NOTE: "FAIR" INDICATES FEW OR NO CLOUDS BELOW 12,000 FEET WITH NO
SIGNIFICANT WEATHER AND/OR OBSTRUCTIONS TO VISIBILITY.

* - THESE STATIONS ARE NOT NWS STATIONS...THUS NOT UNDER NWS
QUALITY CONTROL.  THEY ALSO DO NOT REPORT WEATHER SUCH
AS PRECIPITATION OR FOG.

IAZ001>003-012>014-020>022-031>034-043>046-231500-
   NORTHWEST IOWA

CITY           SKY/WX    TMP DP  RH WIND       PRES   REMARKS
CARROLL *      CLOUDY    72  66  83 S12       29.98S
CHEROKEE *     PTSUNNY   69  65  88 S9        29.94S
DENISON *      PTSUNNY   70  66  88 S9G17     29.94F
LE MARS *      CLOUDY    70  64  83 S10G17    29.91S
ORANGE CITY *  CLOUDY    70  66  88 S10       29.91S
SHELDON *      CLOUDY    68  66  94 S15       29.90S
SIOUX CITY     PTSUNNY   69  64  84 SE14      29.91S
SPENCER        CLOUDY    68  61  78 S12       29.94F
STORM LAKE *   MOSUNNY   68  64  88 S12       29.96F
$$

IAZ055>058-069>071-079>083-090>094-231500-
   SOUTHWEST IOWA

CITY           SKY/WX    TMP DP  RH WIND       PRES   REMARKS
ATLANTIC *     MOSUNNY   70  66  88 S10G20    29.99S
AUDUBON *      MOSUNNY   70  64  83 S12       30.00S
CLARINDA *       N/A     68  66  94 MISG      30.03F
COUNCIL BLFS * PTSUNNY   68  66  94 S17       29.96S
CRESTON *      SUNNY     68  64  88 S13       30.05S
HARLAN  *      CLOUDY    70  66  88 S10G18    30.01S
LAMONI         MOSUNNY   67  65  93 S12       30.07S
RED OAK *      CLOUDY    70  66  88 S13G18    30.00R
SHENANDOAH *   CLOUDY    70 -38   1 S12       30.00R
$$

IAZ047>049-059>061-072>074-084-231500-
   CENTRAL IOWA

CITY           SKY/WX    TMP DP  RH WIND       PRES   REMARKS
AMES           CLOUDY    68  65  90 SE8       30.04S
ANKENY *         N/A    N/A N/A N/A MISG        N/A
BOONE *        MOSUNNY   70  64  83 S10G17    30.02F
CHARITON *       N/A     70  64  83 MISG      30.07S
DES MOINES     PTSUNNY   70  64  81 S13       30.04S
GRINNELL*      CLOUDY    67  62  83 S9        30.10R
KNOXVILLE *    SUNNY     70  64  83 S10G18    30.07R
MARSHALLTOWN   MOSUNNY   68  63  84 S12       30.07R
NEWTON *       CLOUDY    66  64  94 S12       30.08R
PERRY *          N/A     69  67  93 S10       30.02S
$$

IAZ004>006-015-016-023>025-035-036-231500-
   NORTH CENTRAL IOWA

CITY           SKY/WX    TMP DP  RH WIND       PRES   REMARKS
ALGONA *       MOSUNNY   68  63  83 S14G21    29.99S
ESTHERVILLE    MOSUNNY   66  63  90 S15G23    29.96S
FORT DODGE *   PTSUNNY   70  61  73 S9G17     30.01S
MASON CITY     MOSUNNY   66  62  87 S12       30.04S
FOREST CITY *    N/A     68  63  83 S9        30.01F
WEBSTER CITY * PTSUNNY   68  64  88 S12G20    30.00F
IOWA FALLS *     N/A     68  63  83 S10       30.06S
$$

IAZ007>011-017>019-026>030-037>042-050>054-066-231500-
   NORTHEAST IOWA

CITY           SKY/WX    TMP DP  RH WIND       PRES   REMARKS
CEDAR RAPIDS   MOSUNNY   68  64  87 S8        30.11S
CHARLES CITY * SUNNY     68  64  88 S14G20    30.07S
CLINTON *      SUNNY     69  63  81 S9        30.17R
DECORAH *      MOSUNNY   66  61  82 S8G16     30.08S
DUBUQUE        MOSUNNY   67  61  81 S12       30.15R
MONTICELLO *   SUNNY     70  63  78 S10       30.13S
OELWEIN *      SUNNY     68  63  83 S13       30.11R
WATERLOO       MOSUNNY   68  61  78 S10       30.07R
$$

IAZ064-065-067-068-078-231500-
   EAST CENTRAL IOWA

CITY           SKY/WX    TMP DP  RH WIND       PRES   REMARKS
DAVENPORT      MOSUNNY   71  61  70 S8        30.16S
IOWA CITY      MOSUNNY   69  63  81 SE6       30.14S
MT. PLEASANT * SUNNY     73  65  75 S10G16    30.14S
MUSCATINE *    MOSUNNY   72  63  73 S10       30.14S
QUAD CITIES    MOSUNNY   70  61  73 S12       30.16R
$$

IAZ062-063-075>077-085>089-095>099-231500-
   SOUTHEAST IOWA

CITY           SKY/WX    TMP DP  RH WIND       PRES   REMARKS
BURLINGTON     SUNNY     69  63  81 S8        30.15S
FAIRFIELD *    MOSUNNY   68  61  77 S13       30.12S
FORT MADISON * SUNNY     70  63  78 S9        30.16S
KEOKUK *       MOSUNNY   72  61  68 S10G16    30.14S
OSKALOOSA *      N/A     67  64  89 S9        30.11R
CENTERVILLE *    N/A     68  64  88 S9        30.11S
OTTUMWA        SUNNY     68  62  81 S12       30.10R
WASHINGTON *   MOSUNNY   68  64  88 S9G16     30.14R
$$

ABBREVIATIONS USED IN REMARKS
   TC - TEMPERATURES IN CELSIUS
  WCI - WIND CHILL INDEX
   HX - HEAT INDEX
  VSB - VISIBILITY
$$





USA.gov is the U.S. government's official web portal to all federal, state and local government web resources and services.